Surface/Precipitation History
04/15/2014 18:48  to  4/16/2014 18:48
Change End Date:
Date/Time
(MDT)
Sf
Temp Chem Water Layer Surface Precipitation
Sf Sub Frz Factor Pct Depth IcePct Cond Salin Type Intens Accum Rate
04/16/2014 18:41 Error 60.3F - - - - - - 0 mhos 0 None None - -
04/16/2014 18:38 Error 60.8F - - - - - - 0 mhos 0 None None - -
04/16/2014 18:29 Error 62.4F - - - - - - 0 mhos 0 None None - -
04/16/2014 18:28 Error 62.4F - - - - - - 0 mhos 0 None None - -
04/16/2014 18:18 Error 64.0F - - - - - - 0 mhos 0 None None - -
04/16/2014 18:11 Error 64.2F - - - - - - 0 mhos 0 None None - -
04/16/2014 18:08 Error 64.6F - - - - - - 0 mhos 0 None None - -
04/16/2014 17:58 Error 65.7F - - - - - - 0 mhos 0 None None - -
04/16/2014 17:54 Error 67.8F - - - - - - 0 mhos 0 None None - -
04/16/2014 17:48 Error 66.7F - - - - - - 0 mhos 0 None None - -
04/16/2014 17:41 Error 71.4F - - - - - - 0 mhos 0 None None - -
04/16/2014 17:38 Error 75.9F - - - - - - 0 mhos 0 None None - -
04/16/2014 17:28 Error 76.6F - - - - - - 0 mhos 0 None None - -
04/16/2014 17:27 Error 76.6F - - - - - - 0 mhos 0 None None - -
04/16/2014 17:18 Error 73.4F - - - - - - 0 mhos 0 None None - -
Date/Time
(MDT)
Sf
Temp Chem Water Layer Surface Precipitation
Sf Sub Frz Factor Pct Depth IcePct Cond Salin Type Intens Accum Rate
04/16/2014 17:11 Error 72.3F - - - - - - 0 mhos 0 None None - -
04/16/2014 17:08 Error 74.5F - - - - - - 0 mhos 0 None None - -
04/16/2014 17:00 Error 73.4F - - - - - - 0 mhos 0 None None - -
04/16/2014 16:58 Error 74.5F - - - - - - 0 mhos 0 None None - -
04/16/2014 16:48 Error 82.4F - - - - - - 0 mhos 0 None None - -
04/16/2014 16:41 Error 83.3F - - - - - - 0 mhos 0 None None - -
04/16/2014 16:38 Error 82.8F - - - - - - 0 mhos 0 None None - -
04/16/2014 16:30 Error 81.7F - - - - - - 0 mhos 0 None None - -
04/16/2014 16:27 Error 80.6F - - - - - - 0 mhos 0 None None - -
04/16/2014 16:17 Error 76.5F - - - - - - 0 mhos 0 None None - -
04/16/2014 16:16 Error 74.5F - - - - - - 0 mhos 0 None None - -
04/16/2014 16:07 Error 80.4F - - - - - - 0 mhos 0 None None - -
04/16/2014 16:00 Error 81.7F - - - - - - 0 mhos 0 None None - -
04/16/2014 15:57 Error 83.8F - - - - - - 0 mhos 0 None None - -
04/16/2014 15:47 Error 81.3F - - - - - - 0 mhos 0 None None - -
Date/Time
(MDT)
Sf
Temp Chem Water Layer Surface Precipitation
Sf Sub Frz Factor Pct Depth IcePct Cond Salin Type Intens Accum Rate
04/16/2014 15:41 Error 77.5F - - - - - - 0 mhos 0 None None - -
04/16/2014 15:37 Error 79.3F - - - - - - 0 mhos 0 None None - -
04/16/2014 15:28 Error 82.9F - - - - - - 0 mhos 0 None None - -
04/16/2014 15:27 Error 82.9F - - - - - - 0 mhos 0 None None - -
04/16/2014 15:17 Error 83.5F - - - - - - 0 mhos 0 None None - -
04/16/2014 15:12 Error 82.8F - - - - - - 0 mhos 0 None None - -
04/16/2014 15:07 Error 79.2F - - - - - - 0 mhos 0 None None - -
04/16/2014 15:00 Error 72.3F - - - - - - 0 mhos 0 None None - -
04/16/2014 14:57 Error 68.9F - - - - - - 0 mhos 0 None None - -
04/16/2014 14:47 Error 68.0F - - - - - - 0 mhos 0 None None - -
04/16/2014 14:41 Error 68.7F - - - - - - 0 mhos 0 None None - -
04/16/2014 14:37 Error 70.2F - - - - - - 0 mhos 0 None None - -
04/16/2014 14:30 Error 67.8F - - - - - - 0 mhos 0 None None - -
04/16/2014 14:27 Error 67.3F - - - - - - 0 mhos 0 None None - -
04/16/2014 14:17 Error 66.6F - - - - - - 0 mhos 0 None None - -
Date/Time
(MDT)
Sf
Temp Chem Water Layer Surface Precipitation
Sf Sub Frz Factor Pct Depth IcePct Cond Salin Type Intens Accum Rate
04/16/2014 14:15 Error 66.0F - - - - - - 0 mhos 0 None None - -
04/16/2014 14:07 Error 64.9F - - - - - - 0 mhos 0 None None - -
04/16/2014 13:59 Error 65.5F - - - - - - 0 mhos 0 None None - -
04/16/2014 13:57 Error 65.5F - - - - - - 0 mhos 0 None None - -
04/16/2014 13:47 Error 67.8F - - - - - - 0 mhos 0 None None - -
04/16/2014 13:41 Error 68.7F - - - - - - 0 mhos 0 None None - -
04/16/2014 13:37 Error 68.7F - - - - - - 0 mhos 0 None None - -
04/16/2014 13:27 Error 73.2F - - - - - - 0 mhos 0 None None - -
04/16/2014 13:24 Error 70.3F - - - - - - 0 mhos 0 None None - -
04/16/2014 13:17 Error 63.9F - - - - - - 0 mhos 0 None None - -
04/16/2014 13:11 Error 62.4F - - - - - - 0 mhos 0 None None - -
04/16/2014 13:06 Error 62.2F - - - - - - 0 mhos 0 None None - -
04/16/2014 12:56 Error 60.6F - - - - - - 0 mhos 0 None None - -
04/16/2014 12:51 Error 61.0F - - - - - - 0 mhos 0 None None - -
04/16/2014 12:46 Error 61.0F - - - - - - 0 mhos 0 None None - -
Date/Time
(MDT)
Sf
Temp Chem Water Layer Surface Precipitation
Sf Sub Frz Factor Pct Depth IcePct Cond Salin Type Intens Accum Rate
04/16/2014 12:40 Error 61.3F - - - - - - 0 mhos 0 None None - -
04/16/2014 12:36 Error 60.6F - - - - - - 0 mhos 0 None None - -
04/16/2014 12:26 Error 63.5F - - - - - - 0 mhos 0 None None - -
04/16/2014 12:24 Error 64.2F - - - - - - 0 mhos 0 None None - -
04/16/2014 12:16 Error 64.6F - - - - - - 0 mhos 0 None None - -
04/16/2014 12:11 Error 63.5F - - - - - - 0 mhos 0 None None - -
04/16/2014 12:06 Error 56.5F - - - - - - 0 mhos 1 None None - -
04/16/2014 11:56 Error 55.6F - - - - - - 0 mhos 2 None None - -
04/16/2014 11:55 Error 54.9F - - - - - - 0 mhos 3 None None - -
04/16/2014 11:46 Error 49.8F - - - - - - 0 mhos 4 Yes - - -
04/16/2014 11:41 Error 49.6F - - - - - - 0 mhos 9 None None - -
04/16/2014 11:36 Error 47.7F - - - - - - 0 mhos 13 None None - -
04/16/2014 11:26 Error 46.8F - - - - - - 0 mhos 24 None None - -
04/16/2014 11:21 Error 46.2F - - - - - - 0 mhos 29 None None - -
04/16/2014 11:16 Error 45.9F - - - - - - 0 mhos 33 Yes - - -
Date/Time
(MDT)
Sf
Temp Chem Water Layer Surface Precipitation
Sf Sub Frz Factor Pct Depth IcePct Cond Salin Type Intens Accum Rate
04/16/2014 11:10 Error 46.4F - - - - - - 0 mhos 39 None None - -
04/16/2014 11:06 Error 46.8F - - - - - - 0 mhos 41 None None - -
04/16/2014 10:56 Error 47.3F - - - - - - 1 mhos 48 None None - -
04/16/2014 10:51 Error 46.6F - - - - - - 1 mhos 51 None None - -
04/16/2014 10:46 Error 46.2F - - - - - - 1 mhos 53 None None - -
04/16/2014 10:40 Error 46.4F - - - - - - 1 mhos 64 None None - -
04/16/2014 10:36 Error 46.0F - - - - - - 1 mhos 64 None None - -
04/16/2014 10:26 Error 46.9F - - - - - - 1 mhos 67 None None - -
04/16/2014 10:21 Error 46.4F - - - - - - 1 mhos 67 None None - -
04/16/2014 10:15 Error 45.3F - - - - - - 1 mhos 77 None None - -
04/16/2014 10:10 Error 45.0F - - - - - - 1 mhos 69 Yes - - -
04/16/2014 10:05 Error 44.4F - - - - - - 1 mhos 78 Yes - - -
04/16/2014 09:55 Error 43.2F - - - - - - 1 mhos 87 Yes - - -
04/16/2014 09:51 Error 43.2F - - - - - - 1 mhos 85 Yes - - -
04/16/2014 09:45 Error 42.6F - - - - - - 1 mhos 81 Yes - - -
Date/Time
(MDT)
Sf
Temp Chem Water Layer Surface Precipitation
Sf Sub Frz Factor Pct Depth IcePct Cond Salin Type Intens Accum Rate
04/16/2014 09:40 Error 43.0F - - - - - - 1 mhos 84 Yes - - -
04/16/2014 09:35 Error 43.2F - - - - - - 1 mhos 97 Yes - - -
04/16/2014 09:25 Error 43.0F - - - - - - 1 mhos 87 Yes - - -
04/16/2014 09:21 Error 42.8F - - - - - - 1 mhos 84 Yes - - -
04/16/2014 09:15 Error 43.0F - - - - - - 1 mhos 84 Yes - - -
04/16/2014 09:11 Error 42.8F - - - - - - 1 mhos 84 Yes - - -
04/16/2014 09:05 Error 42.6F - - - - - - 1 mhos 84 None None - -
04/16/2014 08:55 Error 42.8F - - - - - - 1 mhos 79 Yes - - -
04/16/2014 08:52 Error 42.4F - - - - - - 1 mhos 78 Yes - - -
04/16/2014 08:45 Error 41.9F - - - - - - 1 mhos 78 None None - -
04/16/2014 08:40 Error 41.5F - - - - - - 1 mhos 68 Yes - - -
04/16/2014 08:35 Error 41.4F - - - - - - 1 mhos 85 Yes - - -
04/16/2014 08:25 Error 41.5F - - - - - - 1 mhos 78 Yes - - -
04/16/2014 08:21 Error 41.4F - - - - - - 1 mhos 81 Yes - - -
04/16/2014 08:15 Error 41.4F - - - - - - 1 mhos 82 Yes - - -
Date/Time
(MDT)
Sf
Temp Chem Water Layer Surface Precipitation
Sf Sub Frz Factor Pct Depth IcePct Cond Salin Type Intens Accum Rate
04/16/2014 08:10 Error 41.2F - - - - - - 1 mhos 78 None None - -
04/16/2014 08:05 Error 40.6F - - - - - - 1 mhos 73 Yes - - -
04/16/2014 07:56 Error 40.5F - - - - - - 1 mhos 92 Yes - - -
04/16/2014 07:55 Error 40.3F - - - - - - 1 mhos 91 Yes - - -
04/16/2014 07:45 Error 40.3F - - - - - - 1 mhos 91 Yes - - -
04/16/2014 07:40 Error 39.9F - - - - - - 1 mhos 90 Yes - - -
04/16/2014 07:35 Error 39.9F - - - - - - 1 mhos 87 None None - -
04/16/2014 07:25 Error 39.7F - - - - - - 1 mhos 79 Yes - - -
04/16/2014 07:21 Error 39.6F - - - - - - 1 mhos 77 Yes - - -
04/16/2014 07:15 Error 39.4F - - - - - - 1 mhos 80 Yes - - -
04/16/2014 07:10 Error 39.4F - - - - - - 1 mhos 77 Yes - - -
04/16/2014 07:05 Error 39.2F - - - - - - 1 mhos 84 None None - -
04/16/2014 06:55 Error 39.2F - - - - - - 1 mhos 82 None None - -
04/16/2014 06:51 Error 39.2F - - - - - - 1 mhos 81 None None - -
04/16/2014 06:44 Error 39.0F - - - - - - 1 mhos 76 None None - -
Date/Time
(MDT)
Sf
Temp Chem Water Layer Surface Precipitation
Sf Sub Frz Factor Pct Depth IcePct Cond Salin Type Intens Accum Rate
04/16/2014 06:40 Error 39.0F - - - - - - 1 mhos 74 None None - -
04/16/2014 06:34 Error 39.0F - - - - - - 1 mhos 72 Yes - - -
04/16/2014 06:24 Error 38.8F - - - - - - 1 mhos 70 Yes - - -
04/16/2014 06:21 Error 38.8F - - - - - - 1 mhos 70 None None - -
04/16/2014 06:14 Error 38.7F - - - - - - 1 mhos 63 Yes - - -
04/16/2014 06:10 Error 38.7F - - - - - - 1 mhos 88 Yes - - -
04/16/2014 06:04 Error 38.5F - - - - - - 1 mhos 103 Yes - - -
04/16/2014 05:54 Error 37.9F - - - - - - 1 mhos 109 Yes - - -
04/16/2014 05:51 Error 38.1F - - - - - - 1 mhos 108 Yes - - -
04/16/2014 05:44 Error 37.9F - - - - - - 1 mhos 63 Yes - - -
04/16/2014 05:40 Error 37.9F - - - - - - 1 mhos 68 Yes - - -
04/16/2014 05:34 Error 37.9F - - - - - - 1 mhos 74 Yes - - -
04/16/2014 05:24 Error 38.3F - - - - - - 1 mhos 85 Yes - - -
04/16/2014 05:21 Error 38.3F - - - - - - 1 mhos 87 Yes - - -
04/16/2014 05:14 Error 38.5F - - - - - - 1 mhos 95 Yes - - -
Date/Time
(MDT)
Sf
Temp Chem Water Layer Surface Precipitation
Sf Sub Frz Factor Pct Depth IcePct Cond Salin Type Intens Accum Rate
04/16/2014 05:11 Error 38.3F - - - - - - 1 mhos 93 Yes - - -
04/16/2014 05:04 Error 38.1F - - - - - - 1 mhos 92 Yes - - -
04/16/2014 04:54 Wet 38.5F - 32F 90 0% 0.00 in 0% 1 mhos 53 Yes - - -
04/16/2014 04:51 Wet 38.5F - 32F 90 0% 0.00 in 0% 0 mhos 42 Yes - - -
04/16/2014 04:46 Wet 38.3F - 32F 65 0% 0.00 in 0% 0 mhos 21 Yes - - -
04/16/2014 04:44 Wet 38.3F - 32F 55 0% 0.00 in 0% 0 mhos 20 Yes - - -
04/16/2014 04:34 Wet 39.7F - 32F 5 0% 0.20 in 0% 0 mhos 1 Yes - - -
04/16/2014 04:24 Trace Moisture 40.5F - - 5 - - - 0 mhos 0 None None - -
04/16/2014 04:21 Trace Moisture 40.6F - - 5 - - - 0 mhos 0 None None - -
04/16/2014 04:14 Dry 40.8F - - - - - - 0 mhos 0 None None - -
04/16/2014 04:11 Dry 40.8F - - - - - - 0 mhos 0 None None - -
04/16/2014 04:04 Dry 41.0F - - - - - - 0 mhos 0 None None - -
04/16/2014 03:54 Dry 41.0F - - - - - - 0 mhos 0 None None - -
04/16/2014 03:51 Dry 41.2F - - - - - - 0 mhos 0 None None - -
04/16/2014 03:44 Dry 41.4F - - - - - - 0 mhos 0 Yes - - -
Date/Time
(MDT)
Sf
Temp Chem Water Layer Surface Precipitation
Sf Sub Frz Factor Pct Depth IcePct Cond Salin Type Intens Accum Rate
04/16/2014 03:41 Dry 41.7F - - - - - - 0 mhos 0 None None - -
04/16/2014 03:34 Dry 41.9F - - - - - - 0 mhos 0 None None - -
04/16/2014 03:24 Dry 42.4F - - - - - - 0 mhos 0 None None - -
04/16/2014 03:21 Dry 42.4F - - - - - - 0 mhos 0 None None - -
04/16/2014 03:13 Dry 42.4F - - - - - - 0 mhos 0 None None - -
04/16/2014 03:11 Dry 42.4F - - - - - - 0 mhos 0 None None - -
04/16/2014 03:03 Dry 42.4F - - - - - - 0 mhos 0 None None - -
04/16/2014 02:53 Dry 42.4F - - - - - - 0 mhos 0 None None - -
04/16/2014 02:51 Dry 42.3F - - - - - - 0 mhos 0 None None - -
04/16/2014 02:43 Dry 42.1F - - - - - - 0 mhos 0 None None - -
04/16/2014 02:40 Dry 42.1F - - - - - - 0 mhos 0 None None - -
04/16/2014 02:33 Dry 42.1F - - - - - - 0 mhos 0 None None - -
04/16/2014 02:23 Dry 41.7F - - - - - - 0 mhos 0 None None - -
04/16/2014 02:21 Dry 41.7F - - - - - - 0 mhos 0 None None - -
04/16/2014 02:13 Dry 41.4F - - - - - - 0 mhos 0 None None - -
Date/Time
(MDT)
Sf
Temp Chem Water Layer Surface Precipitation
Sf Sub Frz Factor Pct Depth IcePct Cond Salin Type Intens Accum Rate
04/16/2014 02:11 Dry 41.4F - - - - - - 0 mhos 0 None None - -
04/16/2014 02:03 Dry 41.4F - - - - - - 0 mhos 0 None None - -
04/16/2014 01:54 Dry 41.9F - - - - - - 0 mhos 0 None None - -
04/16/2014 01:53 Dry 41.9F - - - - - - 0 mhos 0 None None - -
04/16/2014 01:43 Dry 41.9F - - - - - - 0 mhos 0 None None - -
04/16/2014 01:41 Dry 41.9F - - - - - - 0 mhos 0 None None - -
04/16/2014 01:33 Dry 42.4F - - - - - - 0 mhos 0 None None - -
04/16/2014 01:23 Dry 43.0F - - - - - - 0 mhos 0 None None - -
04/16/2014 01:22 Dry 43.0F - - - - - - 0 mhos 0 None None - -
04/16/2014 01:13 Dry 43.5F - - - - - - 0 mhos 0 None None - -
04/16/2014 01:10 Dry 43.5F - - - - - - 0 mhos 0 None None - -
04/16/2014 01:03 Dry 43.7F - - - - - - 0 mhos 0 None None - -
04/16/2014 00:53 Dry 44.2F - - - - - - 0 mhos 0 None None - -
04/16/2014 00:51 Dry 44.4F - - - - - - 0 mhos 0 None None - -
04/16/2014 00:43 Dry 44.6F - - - - - - 0 mhos 0 None None - -
Date/Time
(MDT)
Sf
Temp Chem Water Layer Surface Precipitation
Sf Sub Frz Factor Pct Depth IcePct Cond Salin Type Intens Accum Rate
04/16/2014 00:40 Dry 44.6F - - - - - - 0 mhos 0 None None - -
04/16/2014 00:33 Dry 45.0F - - - - - - 0 mhos 0 None None - -
04/16/2014 00:23 Dry 45.0F - - - - - - 0 mhos 0 None None - -
04/16/2014 00:15 Dry 45.0F - - - - - - 0 mhos 0 None None - -
04/16/2014 00:13 Dry 45.1F - - - - - - 0 mhos 0 None None - -
04/16/2014 00:03 Dry 45.3F - - - - - - 0 mhos 0 None None - -
04/15/2014 23:53 Dry 45.7F - - - - - - 0 mhos 0 None None - -
04/15/2014 23:42 Dry 45.9F - - - - - - 0 mhos 0 None None - -
04/15/2014 23:32 Dry 46.0F - - - - - - 0 mhos 0 None None - -
04/15/2014 23:22 Dry 46.4F - - - - - - 0 mhos 0 None None - -
04/15/2014 23:15 Dry 46.2F - - - - - - 0 mhos 0 None None - -
04/15/2014 23:12 Dry 46.4F - - - - - - 0 mhos 0 None None - -
04/15/2014 23:02 Dry 46.4F - - - - - - 0 mhos 0 None None - -
04/15/2014 22:52 Dry 46.6F - - - - - - 0 mhos 0 None None - -
04/15/2014 22:51 Dry 46.6F - - - - - - 0 mhos 0 None None - -
Date/Time
(MDT)
Sf
Temp Chem Water Layer Surface Precipitation
Sf Sub Frz Factor Pct Depth IcePct Cond Salin Type Intens Accum Rate
04/15/2014 22:42 Dry 46.8F - - - - - - 0 mhos 0 None None - -
04/15/2014 22:41 Dry 46.8F - - - - - - 0 mhos 0 None None - -
04/15/2014 22:32 Dry 46.9F - - - - - - 0 mhos 0 None None - -
04/15/2014 22:22 Dry 46.9F - - - - - - 0 mhos 0 None None - -
04/15/2014 22:22 Dry 46.9F - - - - - - 0 mhos 0 None None - -
04/15/2014 22:12 Dry 47.1F - - - - - - 0 mhos 0 None None - -
04/15/2014 22:11 Dry 47.3F - - - - - - 0 mhos 0 None None - -
04/15/2014 22:02 Dry 47.7F - - - - - - 0 mhos 0 None None - -
04/15/2014 21:52 Dry 48.0F - - - - - - 0 mhos 0 None None - -
04/15/2014 21:51 Dry 48.0F - - - - - - 0 mhos 0 None None - -
04/15/2014 21:42 Dry 48.6F - - - - - - 0 mhos 0 None None - -
04/15/2014 21:40 Dry 48.6F - - - - - - 0 mhos 0 None None - -
04/15/2014 21:32 Dry 48.9F - - - - - - 0 mhos 0 None None - -
04/15/2014 21:22 Dry 49.3F - - - - - - 0 mhos 0 None None - -
04/15/2014 21:21 Dry 49.3F - - - - - - 0 mhos 0 None None - -
Date/Time
(MDT)
Sf
Temp Chem Water Layer Surface Precipitation
Sf Sub Frz Factor Pct Depth IcePct Cond Salin Type Intens Accum Rate
04/15/2014 21:12 Dry 49.6F - - - - - - 0 mhos 0 None None - -
04/15/2014 21:11 Dry 49.8F - - - - - - 0 mhos 0 None None - -
04/15/2014 21:02 Dry 50.2F - - - - - - 0 mhos 0 None None - -
04/15/2014 20:52 Dry 50.7F - - - - - - 0 mhos 0 None None - -
04/15/2014 20:51 Dry 50.9F - - - - - - 0 mhos 0 None None - -
04/15/2014 20:42 Dry 51.4F - - - - - - 0 mhos 0 None None - -
04/15/2014 20:41 Dry 51.4F - - - - - - 0 mhos 0 None None - -
04/15/2014 20:32 Dry 51.8F - - - - - - 0 mhos 0 None None - -
04/15/2014 20:22 Dry 52.7F - - - - - - 0 mhos 0 None None - -
04/15/2014 20:21 Dry 52.9F - - - - - - 0 mhos 0 None None - -
04/15/2014 20:12 Dry 53.2F - - - - - - 0 mhos 0 None None - -
04/15/2014 20:10 Dry 53.4F - - - - - - 0 mhos 0 None None - -
04/15/2014 20:02 Dry 53.6F - - - - - - 0 mhos 0 None None - -
04/15/2014 19:51 Dry 54.0F - - - - - - 0 mhos 0 None None - -
04/15/2014 19:51 Dry 54.0F - - - - - - 0 mhos 0 None None - -
Date/Time
(MDT)
Sf
Temp Chem Water Layer Surface Precipitation
Sf Sub Frz Factor Pct Depth IcePct Cond Salin Type Intens Accum Rate
04/15/2014 19:41 Dry 54.5F - - - - - - 0 mhos 0 None None - -
04/15/2014 19:41 Dry 54.5F - - - - - - 0 mhos 0 None None - -
04/15/2014 19:31 Dry 55.0F - - - - - - 0 mhos 0 None None - -
04/15/2014 19:21 Dry 55.4F - - - - - - 0 mhos 0 None None - -
04/15/2014 19:21 Dry 55.6F - - - - - - 0 mhos 0 None None - -
04/15/2014 19:11 Dry 56.1F - - - - - - 0 mhos 0 None None - -
04/15/2014 19:10 Dry 56.1F - - - - - - 0 mhos 0 None None - -
04/15/2014 19:01 Dry 56.7F - - - - - - 0 mhos 0 None None - -
04/15/2014 18:51 Dry 57.0F - - - - - - 0 mhos 0 None None - -
04/15/2014 18:51 Dry 57.0F - - - - - - 0 mhos 0 None None - -
Change End Date:
Copyright © 1998-2005 Surface Systems, Inc.
All Rights Reserved
Send comments about the data to:
SCAN Web ® is a registered trademark of Surface Systems, Inc.
SCAN Web Version 5.6